Location: Olmeneta
(45.2333°N, 10.0167°E)
Time: 20:43:27
(UTC+00:00)

FALCON 9 DEB - Pass Details

Date: 03 March 2021
Orbit: 424 x 435 km, 53.0° (Epoch: 13 April)

Event Time Altitude Azimuth Distance (km) Brightness Sun altitude
Rises 18:21:25 0° 303° (WNW) 2,404 8.0 -13.4°
Reaches altitude 10° 18:23:34 10° 308° (NW) 1,532 6.8 -13.7°
Maximum altitude 18:26:57 55° 27° (NNE) 520 3.3 -14.3°
Enters shadow 18:28:20 31° 92° (E) 786 3.8 -14.6°
